User: anonymous
Location: Unspecified
(0.0000°N, 0.0000°E)
Time: 01:56:25
(UTC+02:00)
Language:

Cosmos 1703 - Orbit

View from above orbital plane
View from above orbital plane
View from above satellite
View from above satellite

Ground track
Ground track

The orbit data is extracted from the following two-line orbital elements,

1 16262U 85108A   14273.43414300  .00005029  00000-0  34115-3 0  5264
2 16262 082.4912 140.3243 0014253 102.8876 257.3944 15.06149799569486
Epoch (UTC): 30 September 2014 10:25:09
Eccentricity: 0.0014253
inclination: 82.4912°
perigee height: 538 km
apogee height: 558 km
right ascension of ascending node: 140.3243°
argument of perigee: 102.8876°
revolutions per day: 15.06149799
mean anomaly at epoch: 257.3944°
orbit number at epoch: 56948

The dashed part of the orbit path shows where the satellite is in the earth's shadow,  

DLR